Kyiv, Ukraine

11:27 AM EET on November 18, 2019 (GMT +0200)
Zhuliany

Weather History for UKKK - September, 2019

Change the Weather History Date:

Monday, September 23, 2019

  Actual Average (WUND) Record (WUND)
Temperature  
Mean Temperature 48 °F -  
Max Temperature 55 °F - - (-1)
Min Temperature 41 °F - - (-1)
Degree Days  
Heating Degree Days 17    
Moisture  
Dew Point 36 °F    
Average Humidity 61    
Maximum Humidity 87    
Minimum Humidity 22    
Precipitation  
Precipitation 0.00 in 0.05 in - ()
Sea Level Pressure  
Sea Level Pressure 30.08 in    
Wind  
Wind Speed 8 mph ()    
Max Wind Speed 16 mph    
Max Gust Speed -    
Visibility 7.6 miles    
Events      
Averages and records for this station are not official NWS values.
T = Trace of Precipitation, MM = Missing Value Source: Averaged Metar Reports

Daily Weather History Graph

Daily Weather History Graph

Search for Another Location

Airport or City:

Astronomy

Sep. 23, 2019 Rise Set
Actual Time 6:45 AM EEST 6:55 PM EEST
Civil Twilight 6:12 AM EEST 7:27 PM EEST
Nautical Twilight 5:34 AM EEST 8:05 PM EEST
Astronomical Twilight 4:54 AM EEST 8:45 PM EEST
Moon No Moon Rise 4:09 PM EEST (9/23)
Length of Visible Light 13h 14m
Length of Day
12h 09m
Last Quarter, 36% of the Moon is Illuminated
Sep 23
Last Quarter
Sep 28
New
Oct 5
First Quarter
Oct 14
Full
Oct 21
Last Quarter

Hourly Weather History & Observations

Time (EEST) Temp. Windchill Dew Point Humidity Pressure Visibility Wind Dir Wind Speed Gust Speed Precip Events Conditions
12:00 AM 55 °F - 47 °F 67% 29.94 in 12 mi NNW 4.5 mph - -  
12:00 AM 51.8 °F - 46.4 °F 82% 29.95 in - West 8.9 mph - N/A   Clear
12:30 AM 51.8 °F - 46.4 °F 82% 29.95 in - West 6.7 mph - N/A   Clear
1:00 AM 53.6 °F - 48.2 °F 82% 29.95 in 6.2 mi WNW 4.5 mph - N/A   Scattered Clouds
1:30 AM 53.6 °F - 48.2 °F 82% 29.95 in 6.2 mi NNE 11.2 mph - N/A   Mostly Cloudy
2:00 AM 50.0 °F - 46.4 °F 87% 29.98 in 6.2 mi NNE 13.4 mph - N/A   Mostly Cloudy
2:30 AM 48.2 °F - 44.6 °F 87% 29.98 in 6.2 mi NE 13.4 mph - N/A   Mostly Cloudy
3:00 AM 48 °F - 43 °F 77% 30.01 in 12 mi ENE 4.5 mph - -   Overcast
3:00 AM 48.2 °F - 42.8 °F 82% 30.01 in 6.2 mi NE 13.4 mph - N/A   Mostly Cloudy
3:30 AM 46.4 °F 39.9 °F 42.8 °F 87% 30.01 in 6.2 mi NE 15.7 mph - N/A   Mostly Cloudy
4:00 AM 46.4 °F 41.2 °F 39.2 °F 76% 30.01 in 6.2 mi NE 11.2 mph - N/A   Mostly Cloudy
4:30 AM 46.4 °F 43.0 °F 39.2 °F 76% 30.01 in 6.2 mi NE 6.7 mph - N/A   Mostly Cloudy
5:00 AM 46.4 °F 44.4 °F 39.2 °F 76% 30.01 in 6.2 mi ENE 4.5 mph - N/A   Mostly Cloudy
5:30 AM 46.4 °F 43.0 °F 39.2 °F 76% 30.04 in 6.2 mi NE 6.7 mph - N/A   Mostly Cloudy
6:00 AM 46 °F - 38 °F 65% 30.06 in 12 mi ENE 6.7 mph - -   Overcast
6:00 AM 46.4 °F 41.2 °F 39.2 °F 76% 30.04 in 6.2 mi NE 11.2 mph - N/A   Mostly Cloudy
6:30 AM 44.6 °F 38.2 °F 39.2 °F 81% 30.04 in 6.2 mi NE 13.4 mph - N/A   Mostly Cloudy
7:00 AM 44.6 °F 38.2 °F 39.2 °F 81% 30.06 in 6.2 mi NE 13.4 mph - N/A   Mostly Cloudy
7:30 AM 44.6 °F 38.9 °F 37.4 °F 76% 30.06 in 6.2 mi NE 11.2 mph - N/A   Overcast
8:00 AM 44.6 °F 39.8 °F 37.4 °F 76% 30.09 in 6.2 mi ENE 8.9 mph - N/A   Overcast
8:30 AM 44.6 °F 38.9 °F 37.4 °F 76% 30.09 in 6.2 mi ENE 11.2 mph - N/A   Overcast
9:00 AM 45 °F - 37 °F 64% 30.13 in 12 mi ENE 6.7 mph - -   Overcast
9:00 AM 44.6 °F 38.9 °F 35.6 °F 71% 30.12 in 6.2 mi NE 11.2 mph - N/A   Overcast
9:30 AM 44.6 °F 39.8 °F 35.6 °F 71% 30.12 in 6.2 mi NE 8.9 mph - N/A   Overcast
10:00 AM 46.4 °F 43.0 °F 35.6 °F 66% 30.12 in - NE 6.7 mph - N/A   Clear
10:30 AM 46.4 °F 43.0 °F 37.4 °F 71% 30.12 in - NE 6.7 mph - N/A   Clear
11:00 AM 48.2 °F - 37.4 °F 66% 30.12 in 6.2 mi ENE 6.7 mph - N/A   Mostly Cloudy
11:30 AM 50.0 °F - 39.2 °F 66% 30.12 in 6.2 mi NE 8.9 mph - N/A   Mostly Cloudy
12:00 PM 50 °F - 34 °F 42% 30.15 in 12 mi East 4.5 mph - -   Mostly Cloudy
12:00 PM 50.0 °F - 35.6 °F 58% 30.12 in 6.2 mi NE 8.9 mph - N/A   Mostly Cloudy
12:30 PM 51.8 °F - 33.8 °F 50% 30.12 in 6.2 mi NE 8.9 mph - N/A   Mostly Cloudy
1:00 PM 53.6 °F - 33.8 °F 47% 30.12 in 6.2 mi ENE 8.9 mph - N/A   Scattered Clouds
1:30 PM 53.6 °F - 30.2 °F 41% 30.12 in 6.2 mi NE 6.7 mph - N/A   Partly Cloudy
2:00 PM 53.6 °F - 32.0 °F 44% 30.12 in - NE 8.9 mph - N/A   Clear
2:30 PM 53.6 °F - 30.2 °F 41% 30.12 in - ENE 8.9 mph - N/A   Clear
3:00 PM 54 °F - 26 °F 22% 30.12 in 12 mi East 6.7 mph - -   Clear
3:00 PM 55.4 °F - 30.2 °F 38% 30.12 in - North 8.9 mph - N/A   Clear
3:30 PM 53.6 °F - 28.4 °F 38% 30.09 in - ENE 6.7 mph - N/A   Clear
4:00 PM 53.6 °F - 30.2 °F 41% 30.09 in - NE 8.9 mph - N/A   Clear
4:30 PM 55.4 °F - 30.2 °F 38% 30.09 in - North 6.7 mph - N/A   Clear
5:00 PM 53.6 °F - 30.2 °F 41% 30.09 in - NNE 8.9 mph - N/A   Clear
5:30 PM 53.6 °F - 30.2 °F 41% 30.12 in - NNE 6.7 mph - N/A   Clear
6:00 PM 53 °F - 29 °F 27% 30.12 in 12 mi NNE 4.5 mph - -   Clear
6:00 PM 53.6 °F - 30.2 °F 41% 30.09 in - NNE 6.7 mph - N/A   Clear
6:30 PM 51.8 °F - 30.2 °F 44% 30.12 in - North 6.7 mph - N/A   Clear
7:00 PM 48.2 °F - 32.0 °F 54% 30.12 in - North 6.7 mph - N/A   Clear
7:30 PM 46.4 °F 43.0 °F 32.0 °F 57% 30.12 in - NNE 6.7 mph - N/A   Clear
8:00 PM 46.4 °F 43.0 °F 32.0 °F 57% 30.12 in - NNE 6.7 mph - N/A   Clear
8:30 PM 46.4 °F 43.0 °F 30.2 °F 53% 30.12 in - NE 6.7 mph - N/A   Clear
9:00 PM 46 °F - 29 °F 40% 30.15 in 12 mi ENE 4.5 mph - -  
9:00 PM 44.6 °F 40.8 °F 28.4 °F 53% 30.12 in - ENE 6.7 mph - N/A   Clear
9:30 PM 42.8 °F 40.2 °F 28.4 °F 57% 30.15 in - East 4.5 mph - N/A   Clear
10:00 PM 42.8 °F 40.2 °F 28.4 °F 57% 30.15 in - ENE 4.5 mph - N/A   Clear
10:30 PM 42.8 °F 40.2 °F 30.2 °F 61% 30.15 in - East 4.5 mph - N/A   Clear
11:00 PM 41.0 °F 38.1 °F 30.2 °F 65% 30.15 in - East 4.5 mph - N/A   Clear
11:30 PM 41.0 °F 38.1 °F 30.2 °F 65% 30.15 in - East 4.5 mph - N/A   Clear